Terug naar catalogus

FENGYUN 1C DEB

ActiefSSO
NORAD 35125·DEBRIS·🇨🇳 China

Gelanceerd May 10, 1999 vanaf Taiyuan Satellite Launch Center

Loading…

Volgende Passages (komende 24 uur)

TLE

VerouderendSource: Space-Track

Epoch: Sep 5, 2026, 05:33 UTC

1 35125U 99025DLD 26248.23154196  .00001422  00000-0  50964-3 0  9990
2 35125  98.2169 251.0188 0050254 215.6801 144.1023 14.34689307351017

Volg FENGYUN 1C DEB in realtime met AllMySat

Download on the App Store